Regional Weather Roundup
Issued by NWS Wakefield, VA

Home | Current Version | Previous Version | Text Only | Print | Product List | Glossary Off
Versions: 1 2 3 4 5 6 7 8 9 10 11 12 13 14 15 16 17 18 19 20 21 22 23 24 25 26

000
ASUS41 KAKQ 292215
RWRAKQ

REGIONAL WEATHER ROUNDUP
NATIONAL WEATHER SERVICE WAKEFIELD VA
600 PM EDT THU SEP 29 2016

Note: "fair" indicates few or no clouds below 12,000 feet with no
significant weather and/or obstructions to visibility. * = Denotes
station may not report precipitation (e.g., rain,snow,etc.),
thunder or fog.

VAZ042-051-052>054-056-292300-
NORTHERN VIRGINIA

CITY           SKY/WX    TMP DP  RH WIND       PRES   REMARKS
WASH NATIONAL  CLOUDY    68  66  93 E14G21    30.15R
DULLES         LGT RAIN  66  64  93 E14       30.14R FOG
FORT BELVOIR   CLOUDY    68  64  88 VRB3      30.13S
QUANTICO       CLOUDY    71  65  81 E17       30.13R
FREDERICKSBRG* CLOUDY    70  69  96 E13G21    30.09S
STAFFORD*      CLOUDY    69  66  91 E14G21    30.15S
WARRENTON      CLOUDY    69  62  79 E15G23    30.11R
CULPEPER*      CLOUDY    70  67  89 E6        30.11S
MANASSAS*      NOT AVBL
LEESBURG*      CLOUDY    66  66 100 E13G18    30.16R FOG
WINCHESTER     LGT RAIN  64  63  94 E12       30.12R
FRONT ROYAL*   CLOUDY    66  64  94 E13G21    30.09R
LURAY*         RAIN     N/A N/A N/A E13G21    30.08R
$$

VAZ048-049-060>072-079>083-292300-
CENTRAL AND SOUTH CENTRAL VIRGINIA

CITY           SKY/WX    TMP DP  RH WIND       PRES   REMARKS
RICHMOND       CLOUDY    70  67  90 E16G29    30.06S
CHESTERFIELD*  CLOUDY    72  57  60 E8        30.07R
PETERSBURG*    LGT RAIN N/A N/A N/A E8        30.06R
HANOVER        CLOUDY    71  66  84 E8G18     30.08S
TAPPAHANNOCK*  CLOUDY    72  66  82 NE17G26   30.11R
QUINTON*       CLOUDY    70  68  95 E12       30.07R
CHARLOTTSVILLE CLOUDY    72  68  87 E12       30.06S
GORDONSVILLE*  CLOUDY    70  68  94 NE13      30.07S
ORANGE*          N/A     70  70 100 NE15      30.10S
LOUISA*        CLOUDY    73  70  88 E9G24     30.06S
BUMPASS*       CLOUDY    70  68  91 E13G23    30.08R
FARMVILLE*     CLOUDY    76  71  84 E10G16    30.02R HAZE
CREWE*         CLOUDY    73  73 100 E6        30.04R
FORT PICKETT*  CLOUDY    72  68  88 E9G17     30.05R
CHASE CITY*    CLOUDY    74  73  93 CALM      30.03R
CLARKSVILLE*   CLOUDY    73  72  94 E5        30.02R
SOUTH HILL*    CLOUDY    74  73  94 CALM      30.08S
LAWRENCEVILLE* CLOUDY    73  70  88 MISG      30.04R
EMPORIA*       CLOUDY    73  70  88 NE5       30.05R
$$

VAZ088>098-292300-
SOUTHEAST VIRGINIA

CITY           SKY/WX    TMP DP  RH WIND       PRES   REMARKS
NORFOLK        LGT RAIN  73  70  90 NE16      30.03R
VIRGINIA BEACH CLOUDY    73  70  90 NE8       30.02R
NORFOLK NAVAL  CLOUDY    74  70  87 NE14      30.05R
WEST POINT*    CLOUDY    72  67  84 NE15      30.09R
SALUDA*        CLOUDY    71  69  94 NE12G24   30.08R
NEWPORT NEWS   CLOUDY    73  69  87 NE13      30.05R
LANGLEY AFB    CLOUDY    73  70  90 NE18      30.04R
FORT EUSTIS    CLOUDY    74  69  83 NE8       30.03R
WILLIAMSBURG*  CLOUDY    75  70  83 NE5       30.06S
HR EXEC AP*    CLOUDY    73  70  88 E8        30.06R
FRANKLIN*      CLOUDY    75  71  88 NE10      30.03F
US460-WAKEFLD  LGT RAIN  72  71  97 NE3       30.05R FOG
$$

VAZ020-022-025-037-045-292300-
WEST CENTRAL AND SOUTHWEST VIRGINIA

CITY           SKY/WX    TMP DP  RH WIND       PRES   REMARKS
STAUNTON*      CLOUDY    71  65  82 E10       30.08R
WAYNESBORO*    CLOUDY    69  66  88 E8        30.07R
HOT SPRINGS VA CLOUDY    61  61 100 E10G17    30.07F
LYNCHBURG      CLOUDY    74  65  73 E13G21    30.03R
DANVILLE       CLOUDY    75  68  78 VRB6      30.00R
SOUTH BOSTON*  CLOUDY    74  70  86 E6        30.02R
MARTINSVILLE   MOSUNNY   66  61  83 CALM      30.02S
ROANOKE        TSTM      68  65  90 SW5       30.04R
BLACKSBURG     MOSUNNY   65  62  90 E6        30.07R
DUBLIN*        PTSUNNY   67  62  84 NE7       30.04S
MARION*        PTSUNNY   71  58  62 SE3       30.04R
HILLSVILLE*    MOSUNNY   65  63  93 SE3       30.03R
RICHLANDS*     CLOUDY    56  56 100 NW6       30.05R
WISE*          LGT RAIN  54  52  94 NW5       30.08R
ABINGDON*      CLOUDY    63  60  91 NW6       30.03R
$$

MDZ021>025-VAZ099-100-292300-
SOUTHERN MARYLAND AND THE DELMARVA PENINSULA

CITY           SKY/WX    TMP DP  RH WIND       PRES   REMARKS
PATUXENT RIVER CLOUDY    69  63  81 NE18G29   30.11S
BAY BRIDGE APT CLOUDY    66  63  88 MISG      30.17R
LEONARDTOWN    CLOUDY    68  63  83 E8G21     30.15R
DOVER          LGT RAIN  64  64 100 NE30G41   30.17S FOG
GEORGETOWN     RAIN      66  32  28 E28G38    30.18R
EASTON         CLOUDY    66  63  88 E16G26    30.18S
CAMBRIDGE      CLOUDY    64  63  94 E13G21    30.13S
SALISBURY      RAIN      66  65  96 NE20G30   30.13S FOG
OCEAN CITY     HVY RAIN N/A N/A N/A E24G37    30.13F
WALLOPS ISLAND HVY RAIN  70  70 100 NE31G40   30.09S FOG
ACCOMACK*      CLOUDY   N/A N/A N/A NE20G28   30.07R
$$

NCZ012>017-030>032-292300-
NORTH CENTRAL AND EASTERN NORTH CAROLINA

CITY           SKY/WX    TMP DP  RH WIND       PRES   REMARKS
ROANOKE RAPIDS FAIR      75  70  83 NE6       30.03R
RALEIGH        PTSUNNY   75  68  78 SE8       30.01R
ELIZABETH CITY PTCLDY    74  70  87 NE6       30.01S
AHOSKIE*       CLOUDY    74  72  92 CALM      30.03R
EDENTON*       PTCLDY    78  78  99 E6        30.02S
CURRITUCK*     PTCLDY    74  74 100 NE6       30.02S
KILL DEVIL HLS PTCLDY    75  74  99 NE7       30.00S
MANTEO         PTCLDY    75  73  93 E10       30.01S
CAPE HATTERAS  CLOUDY    81  74  79 SE6       30.01R
TARBORO*       FAIR      76  71  84 CALM      30.03R
GOLDSBORO      PTSUNNY   77  76  96 SE5       29.98F
WASHINGTON     CLOUDY    76  71  84 E5        30.02R
GREENVILLE     PTSUNNY   79  72  78 E6        30.03S
NEW BERN       CLOUDY    78  71  79 E6        30.02S
WILMINGTON     CLOUDY    79  72  79 SE7       30.00S
$$

VAZ048-292300-
ELSEWHERE

CITY           SKY/WX    TMP DP  RH WIND       PRES   REMARKS
HARRISBURG PA  CLOUDY    60  59  96 E12       30.25R FOG
BALTIMORE      DRIZZLE   64  63  96 E17       30.18R FOG
ANNAPOLIS      CLOUDY    68  64  87 E18G26    30.17S
ANDREWS AFB    CLOUDY    66  64  93 E17       30.14R
PHILADELPHIA   LGT RAIN  62  59  90 E21G29    30.26R
HENDERSON NC   PTSUNNY   72  66  81 SE5       30.02S
GREENSBORO     PTSUNNY   77  68  73 SE15      29.98R
ROCKY MOUNT    MOSUNNY   75  71  87 CALM      30.01S
$$

VAZ100-292300-
MARINE

STATION/POSITION TIME  TEMP    WIND        PRES    WAVE   SWELL
                       AIR SEA DIR/SP/G            HT/PER HT/PER
                 (UTC) (F)     (DEG/KT/KT) (MB)    (FT/S) (FT/S)
BRANDYWINE LGT   2148   65      70/ 30/ 35   N/A
CAPE MAY NJ      2148   65 70   60/ 11/ 20   N/A
LEWES DE         2148   68 70   80/ 33/ 40   N/A
OCEAN-CITY-INLET 2148           80/ 19/ 27   N/A
WACHAPREAGUE VA  2148   71 74   40/ 23/ 27   N/A
THOMAS POINT MD  2200   67 73   70/ 24/ 25 1022.4F
GOOSES REEF MD   2150   70     100/ 19/ 27 1020.7R
COVE POINT MD    2148   68     100/ 26/ 31   N/A
SOLOMONS ISLAND  2148           60/ 17/ 22   N/A
BISHOPS HEAD MD  2148   69 72   60/ 22/ 29   N/A
PINEY POINT MD   2148          100/ 21/ 29   N/A
POTOMAC MD       2150   71      70/ 27/ 31 1018.4R
CAMBRIDGE MD     2148   67 72   70/ 18/ 23   N/A
LEWISETTA VA     2148   71 72   80/ 23/ 31   N/A
RAPPAHANNOCK LGT 2148           50/ 25/ 27   N/A
STINGRAY PT      2150   73      10/ 23/ 29 1018.2R
YORK RVR RNG VA  2148   73      70/ 25/ 27   N/A
YORKTOWN VA      2148   73 76   60/ 19/ 21   N/A
JAMESTOWN VA     2150   74      60/  6/ 12   N/A
DOMINION TERM VA 2148   74      40/  7/ 14   N/A
KIPTOPEKE VA     2148           60/ 11/ 17   N/A
CHES BAY BRIDGE  2148   74 76   30/ 19/ 23   N/A
CAPE HENRY VA    2148   73      40/ 21/ 25   N/A
WILLOUBY STN VA  2148   73      50/ 18/ 21   N/A
CAPE HENRY BUOY  2142      76                N/A     7/ 8   2/11
1ST LANDING BUOY 2150   74      70/ 19/ 23 1016.6R
CAPE CHARLES BUO 2126      76                N/A     6/ 7   2/11
OFFSHORE WE BUOY 2151      75                N/A     8/ 8   2/11
64NM E OF VA BCH 2150   74 75   20/ 12/ 14 1016.3F   8/ 9   7/ 9
DUCK PIER NC     2148   75 77   50/ 14/ 17   N/A
44056 DUCK FRF   2141      77                N/A     5/ 8   2/11
OREGON INLET NC  2148   76 78   40/ 10/ 12   N/A
HATTERAS NC      2148   79 80  110/  5/  6   N/A
DIAMOND SHLS NC  2150   79 79   80/  4/  6 1016.1S   4/ 9   3/ 9
CAPE LOOKOUT NC  2200   77      90/  6/  7 1016.1R
$$




USA.gov is the U.S. government's official web portal to all federal, state and local government web resources and services.